User: anonymous   Login
Location: Drayton Valley
(53.2170°N, 114.9830°W)
Time: 05:40:37
(UTC-06:00)
Language:

MOZ.5/SAFIR/RUBIN 5/SL-8 - Orbit

View from above orbital plane
View from above orbital plane
View from above satellite
View from above satellite

Ground track
Ground track

The orbit data is extracted from the following two-line orbital elements,

1 28898U 05043G   14295.60578015  .00000789  00000-0  17468-3 0  9599
2 28898 097.8357 118.1486 0019687 358.8825 041.0411 14.59585340478515
Epoch (UTC): 22 October 2014 14:32:19
Eccentricity: 0.0019687
inclination: 97.8357°
perigee height: 680 km
apogee height: 708 km
right ascension of ascending node: 118.1486°
argument of perigee: 358.8825°
revolutions per day: 14.59585340
mean anomaly at epoch: 41.0411°
orbit number at epoch: 47851

The dashed part of the orbit path shows where the satellite is in the earth's shadow,  

DLR